Location: Croydon
(51.3762°N, 0.0982°W)
Time: 02:43:49
(UTC+01:00)

VELOX 1 - Pass Details

Date: 29 April 2019
Orbit: 629 x 644 km, 98.2° (Epoch: 21 May)

Event Time Altitude Azimuth Distance (km) Brightness Sun altitude
Exits shadow 03:27:42 14° 274° (W) 1,771 ? -16.7°
Drops below altitude 10° 03:29:53 10° 304° (WNW) 2,019 ? -16.4°
Sets 03:33:09 0° 330° (NNW) 2,935 ? -16.1°
